Regional Weather Roundup
Issued by NWS

Home | Current Version | Previous Version | Graphics & Text | Print | Product List | Glossary On
Versions: 1 2 3 4 5 6 7 8 9 10 11 12 13 14 15 16 17 18 19 20 21 22 23 24 25 26 27 28 29 30 31 32 33 34 35 36 37 38 39 40 41 42 43 44 45 46 47 48 49 50
000
ASUS43 KLOT 151303
RWRIL

ILLINOIS REGIONAL WEATHER ROUNDUP
NATIONAL WEATHER SERVICE CHICAGO/ROMEOVILLE IL
700 AM CST FRI DEC 15 2017

NOTE: "FAIR" INDICATES FEW OR NO CLOUDS BELOW 12,000 FEET WITH NO
SIGNIFICANT WEATHER AND/OR OBSTRUCTIONS TO VISIBILITY.

* THESE STATIONS ARE NOT UNDER NWS QUALITY CONTROL. THEY ALSO MAY NOT
  REPORT WEATHER SUCH AS PRECIPITATION OR FOG.

ILZ001-002-007-009-015-016-024-151400-
NORTHWEST ILLINOIS

CITY           SKY/WX    TMP DP  RH WIND       PRES   REMARKS
MOLINE         CLOUDY    28  19  69 W12       30.01R WCI  18
STERLING*      MOCLDY    24  18  77 W12       29.97R WCI  13
SAVANNA*       MOCLDY    25  17  74 W9        29.98R WCI  15
$$

ILZ003-004-008-010-011-017-018-151400-
NORTH CENTRAL ILLINOIS

CITY           SKY/WX    TMP DP  RH WIND       PRES   REMARKS
ROCKFORD       FLURRIES  26  15  63 NW15      29.94S WCI  14
FREEPORT*      CLOUDY    25  17  70 W12       29.95R WCI  14
ROCHELLE*      CLOUDY    26  17  70 NW16G26   29.94S WCI  13
DE KALB*       CLOUDY    25  19  77 W14       29.92R WCI  14
$$

ILZ005-006-012>014-019>023-151400-
NORTHEAST ILLINOIS

CITY           SKY/WX    TMP DP  RH WIND       PRES   REMARKS
CHICAGO-OHARE  FLURRIES  25  17  72 W8G18     29.91S WCI  16
CHICAGO-MIDWAY FLURRIES  26  19  74 W15       29.93R WCI  14
AURORA         CLOUDY    26  20  77 W12       29.93S WCI  16
LANSING*       CLOUDY    26  20  80 W10G18    29.94R WCI  15
JOLIET*        CLOUDY    28  20  72 W8        29.95S WCI  20
WAUKEGAN       CLOUDY    24  16  71 MISG      29.88R
DUPAGE AIRPORT CLOUDY    25  19  78 W12       29.91S WCI  14
WHEELING       CLOUDY    26  19  74 W10       29.92S WCI  16
NORTHERLY ISL    N/A     26  18  71 W14         N/A  WCI  15
$$

LMZ740>746-151400-
SOUTHERN LAKE MICHIGAN

STATION/POSITION SKY/WX   TEMP    WIND        PRES    VSBY  WAVE
                          AIR SEA DIR/SP/G                  HT/PER
                          (F)     (DEG/KT/KT) (MB)    (MI)  (FT/S)
HARRISON CRIB              26     300/ 24/ 27   N/A
BURNHAM HARBOR             26     300/ 12/ 21   N/A
CALUMET HARBOR             26     230/  9/ 15 1012.7R
BURNS HARBOR               26     230/ 13/ 19 1013.9S
MICHIGAN CITY              25     210/ 19/ 23   N/A
$$

ILZ025>027-034>036-040-047-049-050-058-095>099-151400-
WEST-CENTRAL ILLINOIS

CITY           SKY/WX    TMP DP  RH WIND       PRES   REMARKS
QUINCY         CLOUDY    31  24  75 NW8       30.06R WCI  23
MACOMB*        CLOUDY    29  24  80 W10       30.06S WCI  20
PITTSFIELD*    CLOUDY    32  25  74 W6        30.07S WCI  26
$$

ILZ028>032-037-038-041>044-048-051>054-059>061-151400-
CENTRAL ILLINOIS

CITY           SKY/WX    TMP DP  RH WIND       PRES   REMARKS
BLOOMINGTON    CLOUDY    26  21  81 W13       30.00S WCI  15
DECATUR        CLOUDY    27  20  75 SW10      30.03F WCI  17
PEORIA         CLOUDY    29  21  72 W9        30.02S WCI  20
LACON*         MOCLDY    27  20  75 W8        30.00S WCI  19
LINCOLN*       CLOUDY    30  23  74 W3        30.03S
SPRINGFIELD    CLOUDY    30  22  72 W12       30.05S WCI  20
TAYLORVILLE    CLOUDY    28  20  72 SW9       30.05F WCI  19
$$

ILZ033-039-045-046-055>057-062-063-151400-
EAST-CENTRAL ILLINOIS

CITY           SKY/WX    TMP DP  RH WIND       PRES   REMARKS
CHAMPAIGN      CLOUDY    26  19  74 SW12      30.02S WCI  16
DANVILLE*      CLOUDY    25  19  77 SW10      29.98F WCI  14
MATTOON        CLOUDY    26  20  77 SW8       30.04S WCI  18
$$

ILZ079-100>102-151400-
SOUTHWEST ILLINOIS

CITY           SKY/WX    TMP DP  RH WIND       PRES   REMARKS
BELLEVILLE     CLOUDY    29  20  71 SW7       30.10R WCI  22
CAHOKIA*       CLOUDY    30  21  69 SW7       30.11R WCI  23
SPARTA*        CLEAR     28  22  77 CALM      30.13S
$$

ILZ064>066-069>071-074>076-080>082-084>086-088>090-092>094-151400-
SOUTH-CENTRAL ILLINOIS

CITY           SKY/WX    TMP DP  RH WIND       PRES   REMARKS
CARBONDALE     CLOUDY    30  22  72 CALM      30.14R
CAIRO*         CLOUDY    31  23  73 W3        30.17R
EFFINGHAM*     CLOUDY    27  21  78 SW3       30.10S
MARION         CLOUDY    32  21  64 W7        30.14R WCI  26
MT. VERNON     PTCLDY    27  21  78 SW5       30.11S WCI  22
CENTRALIA*     CLEAR     27  23  82 SW7       30.09F WCI  20
SALEM*         PTCLDY    28  21  75 SW6       30.09F WCI  21
METROPOLIS*    CLOUDY    31  21  65 CALM      30.17R
$$

ILZ067-068-072-073-078-083-087-091-151400-
SOUTHEAST ILLINOIS

CITY           SKY/WX    TMP DP  RH WIND       PRES   REMARKS
LAWRENCEVILLE  CLOUDY    29  19  66 W9        30.10R WCI  20
FLORA*         CLEAR     28  21  72 SW5       30.10F WCI  23
HARRISBURG*    CLOUDY    30  22  72 W5        30.14R WCI  25
ROBINSON*      MOCLDY    25  18  74 W9        30.09F WCI  16
CARMI*         CLOUDY    30  22  72 W9        30.11S WCI  22
$$

ABBREVIATIONS USED IN REMARKS
   TC - TEMPERATURE IN CELSIUS
  WCI - WIND CHILL INDEX
   HX - HEAT INDEX
  VSB - VISIBILITY
$$





USA.gov is the U.S. government's official web portal to all federal, state and local government web resources and services.